| time (UTC) | temp F | wind direction | speed MPH | gust MPH | rain 1hr in | rain 24hr in | rain mn in | humidity % | barometer mb |
| 20260505170050 | 77 | 213 | 6.0 | 11.0 | 0.00 | 0.00 | 0.00 | 92 | 1009.9 |
| 20260505164557 | 76 | 232 | 7.0 | 11.0 | 0.00 | 0.00 | 0.00 | 94 | 1009.9 |
| 20260505163046 | 76 | 215 | 5.0 | 10.0 | 0.00 | 0.00 | 0.00 | 94 | 1009.9 |
| 20260505153040 | 74 | 206 | 5.0 | 9.0 | 0.00 | 0.00 | 0.00 | 97 | 1010.0 |
| 20260505151535 | 73 | 202 | 4.0 | 11.0 | 0.00 | 0.00 | 0.00 | 98 | 1010.0 |
| 20260505124535 | 72 | 184 | 3.0 | 11.0 | 0.00 | 0.00 | 0.00 | 97 | 1009.1 |
| 20260505123025 | 72 | 194 | 2.0 | 10.0 | 0.00 | 0.00 | 0.00 | 97 | 1008.9 |
| 20260505121523 | 72 | 174 | 4.0 | 10.0 | 0.00 | 0.00 | 0.00 | 97 | 1008.9 |
| 20260505120030 | 72 | 188 | 4.0 | 13.0 | 0.00 | 0.00 | 0.00 | 97 | 1008.9 |
| 20260505114522 | 71 | 188 | 4.0 | 15.0 | 0.00 | 0.00 | 0.00 | 98 | 1008.8 |
| 20260505113021 | 71 | 190 | 4.0 | 10.0 | 0.00 | 0.00 | 0.00 | 98 | 1008.6 |
| 20260505111520 | 71 | 208 | 4.0 | 10.0 | 0.00 | 0.00 | 0.00 | 97 | 1008.7 |
| 20260505101515 | 71 | 211 | 4.0 | 14.0 | 0.00 | 0.00 | 0.00 | 97 | 1009.0 |
| 20260505100015 | 71 | 172 | 5.0 | 12.0 | 0.00 | 0.00 | 0.00 | 97 | 1008.8 |
| 20260505094513 | 71 | 183 | 3.0 | 9.0 | 0.00 | 0.00 | 0.00 | 97 | 1008.9 |
| 20260505093010 | 71 | 170 | 7.0 | 14.0 | 0.00 | 0.00 | 0.00 | 97 | 1009.3 |
| 20260505091513 | 71 | 200 | 8.0 | 17.0 | 0.00 | 0.00 | 0.00 | 97 | 1009.1 |
| 20260505090108 | 71 | 188 | 5.0 | 12.0 | 0.00 | 0.00 | 0.00 | 97 | 1009.2 |
| 20260505084520 | 70 | 161 | 6.0 | 12.0 | 0.00 | 0.00 | 0.00 | 98 | 1009.3 |
| 20260505083005 | 70 | 171 | 3.0 | 8.0 | 0.00 | 0.00 | 0.00 | 98 | 1009.5 |
| 20260505081511 | 70 | 188 | 2.0 | 9.0 | 0.00 | 0.00 | 0.00 | 98 | 1009.6 |
| 20260505080001 | 70 | 148 | 4.0 | 9.0 | 0.00 | 0.00 | 0.00 | 98 | 1009.9 |
| 20260505074559 | 70 | 188 | 3.0 | 11.0 | 0.00 | 0.00 | 0.00 | 97 | 1010.0 |
| 20260505073101 | 70 | 201 | 5.0 | 11.0 | 0.00 | 0.00 | 0.00 | 97 | 1010.2 |
| 20260505071556 | 70 | 183 | 3.0 | 12.0 | 0.00 | 0.00 | 0.00 | 97 | 1010.4 |
| 20260505070053 | 70 | 176 | 1.0 | 8.0 | 0.00 | 0.00 | 0.00 | 97 | 1010.7 |
| 20260505064600 | 70 | 196 | 3.0 | 14.0 | 0.00 | 0.00 | 0.00 | 97 | 1010.6 |
| 20260505063055 | 70 | 205 | 2.0 | 8.0 | 0.00 | 0.00 | 0.00 | 97 | 1010.9 |
| 20260505061551 | 70 | 207 | 3.0 | 9.0 | 0.00 | 0.00 | 0.00 | 96 | 1010.9 |
| 20260505060045 | 70 | 206 | 3.0 | 9.0 | 0.00 | 0.00 | 0.00 | 96 | 1010.8 |
| 20260505054545 | 70 | 167 | 4.0 | 10.0 | 0.00 | 0.00 | 0.00 | 96 | 1010.7 |
| 20260505053106 | 70 | 158 | 4.0 | 11.0 | 0.00 | 0.00 | 0.00 | 95 | 1010.4 |
| 20260505051538 | 71 | 148 | 2.0 | 14.0 | 0.00 | 0.00 | 0.00 | 95 | 1010.7 |
| 20260505041541 | 72 | 159 | 1.0 | 10.0 | 0.00 | 0.00 | 0.00 | 93 | 1011.1 |
| 20260505040035 | 72 | 161 | 3.0 | 9.0 | 0.00 | 0.00 | 0.00 | 92 | 1011.1 |
| 20260505034533 | 72 | 166 | 3.0 | 12.0 | 0.00 | 0.00 | 0.00 | 91 | 1011.1 |
| 20260505033033 | 73 | 157 | 1.0 | 5.0 | 0.00 | 0.00 | 0.00 | 91 | 1011.1 |
| 20260505031531 | 73 | 155 | 2.0 | 11.0 | 0.00 | 0.00 | 0.00 | 90 | 1011.3 |
| 20260505030030 | 74 | 150 | 2.0 | 9.0 | 0.00 | 0.00 | 0.00 | 90 | 1011.2 |
| 20260505023029 | 74 | 163 | 3.0 | 10.0 | 0.00 | 0.00 | 0.00 | 88 | 1010.7 |
| 20260505021530 | 75 | 144 | 3.0 | 9.0 | 0.00 | 0.00 | 0.00 | 88 | 1010.5 |
| 20260505020028 | 75 | 148 | 4.0 | 9.0 | 0.00 | 0.00 | 0.00 | 87 | 1010.3 |
| 20260505014528 | 76 | 153 | 3.0 | 7.0 | 0.00 | 0.00 | 0.00 | 87 | 1010.2 |
| 20260505013027 | 76 | 159 | 1.0 | 7.0 | 0.00 | 0.00 | 0.00 | 86 | 1010.1 |
| 20260505011544 | 77 | 162 | 3.0 | 10.0 | 0.00 | 0.00 | 0.00 | 85 | 1010.0 |
| 20260505010026 | 78 | 160 | 2.0 | 7.0 | 0.00 | 0.00 | 0.00 | 84 | 1010.0 |
| 20260505004525 | 79 | 171 | 3.0 | 12.0 | 0.00 | 0.00 | 0.00 | 83 | 1010.0 |
| 20260505003025 | 79 | 131 | 4.0 | 12.0 | 0.00 | 0.00 | 0.00 | 82 | 1009.8 |
| 20260505001523 | 80 | 117 | 4.0 | 11.0 | 0.00 | 0.00 | 0.00 | 81 | 1010.1 |
| 20260505000028 | 80 | 123 | 5.0 | 15.0 | 0.00 | 0.00 | 0.00 | 80 | 1010.2 |
| 20260504234520 | 80 | 153 | 5.0 | 10.0 | 0.00 | 0.00 | 0.00 | 80 | 1010.5 |
| 20260504233019 | 81 | 168 | 4.0 | 11.0 | 0.00 | 0.00 | 0.00 | 78 | 1010.4 |
| 20260504231517 | 81 | 192 | 5.0 | 12.0 | 0.00 | 0.00 | 0.00 | 77 | 1010.7 |
| 20260504230016 | 82 | 171 | 5.0 | 11.0 | 0.00 | 0.00 | 0.00 | 76 | 1010.9 |
| 20260504224515 | 82 | 196 | 3.0 | 15.0 | 0.00 | 0.00 | 0.00 | 76 | 1010.9 |
| 20260504223016 | 82 | 180 | 3.0 | 14.0 | 0.00 | 0.00 | 0.00 | 75 | 1011.1 |
| 20260504221512 | 82 | 169 | 5.0 | 14.0 | 0.00 | 0.00 | 0.00 | 75 | 1011.2 |
| 20260504220012 | 82 | 162 | 4.0 | 10.0 | 0.00 | 0.00 | 0.00 | 75 | 1011.2 |
| 20260504214511 | 81 | 134 | 6.0 | 15.0 | 0.00 | 0.00 | 0.00 | 74 | 1011.3 |
| 20260504213009 | 82 | 201 | 5.0 | 14.0 | 0.00 | 0.00 | 0.00 | 74 | 1011.6 |
| 20260504211510 | 83 | 194 | 7.0 | 16.0 | 0.00 | 0.00 | 0.00 | 72 | 1011.9 |
| 20260504210010 | 83 | 173 | 3.0 | 11.0 | 0.00 | 0.00 | 0.00 | 74 | 1011.9 |
| 20260504204502 | 82 | 153 | 2.0 | 13.0 | 0.00 | 0.00 | 0.00 | 75 | 1012.3 |
| 20260504203001 | 82 | 155 | 5.0 | 9.0 | 0.00 | 0.00 | 0.00 | 74 | 1012.4 |
| 20260504201558 | 82 | 150 | 2.0 | 12.0 | 0.00 | 0.00 | 0.00 | 74 | 1012.7 |
| 20260504194603 | 81 | 202 | 4.0 | 12.0 | 0.00 | 0.00 | 0.00 | 75 | 1013.1 |
| 20260504193056 | 81 | 215 | 8.0 | 15.0 | 0.00 | 0.00 | 0.00 | 75 | 1013.3 |
| 20260504191607 | 81 | 126 | 5.0 | 17.0 | 0.00 | 0.00 | 0.00 | 76 | 1013.5 |
| 20260504190050 | 81 | 204 | 6.0 | 12.0 | 0.00 | 0.00 | 0.00 | 75 | 1013.7 |
| 20260504184548 | 80 | 131 | 7.0 | 18.0 | 0.00 | 0.00 | 0.00 | 76 | 1014.1 |
| 20260504183046 | 79 | 171 | 5.0 | 15.0 | 0.00 | 0.00 | 0.00 | 77 | 1014.2 |
| 20260504181542 | 80 | 164 | 4.0 | 11.0 | 0.00 | 0.00 | 0.00 | 77 | 1014.5 |
| 20260504180039 | 79 | 198 | 7.0 | 14.0 | 0.00 | 0.00 | 0.00 | 78 | 1014.7 |
| 20260504174538 | 79 | 195 | 8.0 | 16.0 | 0.00 | 0.00 | 0.00 | 77 | 1014.9 |
| 20260504173037 | 78 | 201 | 4.0 | 12.0 | 0.00 | 0.00 | 0.00 | 77 | 1014.9 |
| 20260504171545 | 78 | 158 | 6.0 | 15.0 | 0.00 | 0.00 | 0.00 | 77 | 1015.3 |